Home   Weather   Hefei   Past weeks

Flag for China Past Weather in Hefei, Anhui, China — Yesterday and Last 2 Weeks

59 °F


Feels Like: 58 °F
Forecast: 57 / 63 °F
Wind: 8 mph from Northwest

Location: Hefei Airport

Current Time: Oct 24, 2016 at 10:22:01 PM

Latest Report: Oct 24, 2016 at 9:00 PM

Visibility: 3 mi

Pressure: 29.95 "Hg

Humidity: 94%

Dew Point: 57 °F

Location of HefeiLocation

Past Weather in Hefei — Graph


Hefei Temperature Yesterday

Maximum temperature yesterday: 63 °F (at 12:00 AM)
Minimum temperature yesterday: 57 °F (at 6:00 AM)
Average temperature yesterday: 58 °F

High & Low Weather Summary for the Past Weeks

High75 °F (Oct 19, 12:00 PM)100% (Oct 12, 5:00 AM)30.27 "Hg (Oct 12, 5:00 AM)
Low55 °F (Oct 24, 1:00 AM)53% (Oct 10, 1:00 PM)29.83 "Hg (Oct 22, 3:00 AM)
Average64 °F88%30.06 "Hg
* Reported Oct 9 9:00 PM — Oct 24 9:00 PM, Hefei, Weather by CustomWeather, © 2016

Note: Actual official high and low records may vary slightly from our data, if they occured in-between our weather recording intervals... More about our weather records


Hefei Weather History for the Previous 24 Hours

Scroll right to see more
Time TempWeatherWind HumidityBarometerVisibility
9:00 PM
Mon, Oct 24
59 °FFog.8 mph94%29.95 "Hg3 mi
8:00 PM59 °FFog.3 mph94%29.92 "Hg3 mi
7:00 PM59 °FMostly cloudy.1 mph94%29.92 "Hg4 mi
6:00 PM59 °FFog.No wind94%29.92 "Hg3 mi
5:00 PM59 °FMostly cloudy.1 mph94%29.92 "Hg4 mi
4:00 PM61 °FMostly cloudy.1 mph88%29.92 "Hg4 mi
3:00 PM61 °FMostly cloudy.3 mph88%29.92 "Hg5 mi
2:00 PM59 °FMostly cloudy.1 mph88%29.92 "HgN/A
1:00 PM59 °FMostly cloudy.1 mph94%29.95 "Hg4 mi
12:00 PM57 °FMostly cloudy.3 mph100%29.98 "Hg4 mi
11:00 AM57 °FFog.3 mph94%30.01 "Hg3 mi
10:00 AM57 °FMostly cloudy.3 mph94%30.04 "Hg4 mi
9:00 AM57 °FFog.3 mph94%30.04 "Hg3 mi
8:00 AM57 °FFog.6 mph94%30.04 "Hg2 mi
7:00 AM55 °FFog.6 mph100%30.04 "Hg2 mi
6:00 AM55 °FLight rain. Fog.3 mph94%30.04 "Hg2 mi
5:00 AM55 °FLight rain. Fog.6 mph100%30.01 "Hg1 mi
4:00 AM55 °FLight rain. Fog.3 mph100%30.01 "Hg1 mi
3:00 AM55 °FFog.6 mph100%30.04 "Hg2 mi
2:00 AM55 °FLight rain. Fog.6 mph100%30.04 "Hg1 mi
1:00 AM55 °FFog.6 mph100%30.04 "Hg2 mi
12:00 AM57 °FFog.6 mph94%30.04 "Hg2 mi
11:00 PM
Sun, Oct 23
57 °FLight rain. Fog.6 mph94%30.07 "Hg2 mi
10:00 PM57 °FLight rain. Fog.6 mph94%30.07 "Hg2 mi
Weather by CustomWeather, © 2016

See weather overviewHow to use our weather pages